Regional Weather Roundup
Issued by NWS Green Bay, WI

Home | Current Version | Previous Version | Text Only | Print | Product List | Glossary On
Versions: 1 2 3 4 5 6 7 8 9 10 11 12 13 14 15 16 17 18 19 20 21 22 23 24 25 26 27 28 29 30 31 32 33 34 35 36 37 38 39 40 41 42 43 44 45 46 47 48 49 50
000
ASUS43 KGRB 210759
RWRGRB

NORTH-CENTRAL AND NORTHEAST WISCONSIN REGIONAL WEATHER ROUNDUP
NATIONAL WEATHER SERVICE GREEN BAY WI
300 AM CDT SUN SEP 21 2014

WIZ005-009-010>012-018-019-210900-
NORTH CENTRAL WISCONSIN

CITY           SKY/WX    TMP DP  RH WIND       PRES   REMARKS
IRONWOOD       CLOUDY    52  52 100 N8        29.71R
MANITOWISH WTR NOT AVBL
ARBOR VITAE    NOT AVBL
EAGLE RIVER    NOT AVBL
LAND O LAKES   NOT AVBL
RHINELANDER    LGT RAIN  52  50  93 N3        29.69R
PHILLIPS       RAIN      51  50  97 NW3       29.70R
ANTIGO         NOT AVBL
TOMAHAWK       NOT AVBL
MERRILL        NOT AVBL
$$

WIZ013-073-210900-
NORTHEAST WISCONSIN

CITY           SKY/WX    TMP DP  RH WIND       PRES   REMARKS
IRON MOUNTAIN  LGT RAIN  54  51  90 N6        29.67S
MARINETTE      CLOUDY    55  52  88 N5        29.63F
$$

WIZ017-030-035>037-045-210900-
CENTRAL WISCONSIN

CITY           SKY/WX    TMP DP  RH WIND       PRES   REMARKS
MEDFORD        NOT AVBL
WAUSAU         LGT RAIN  54  52  93 W12       29.66F
MOSINEE        DRIZZLE   52  52 100 W13       29.69F
MARSHFIELD     CLOUDY    55  50  83 W15G22    29.70F
WISC RAPIDS    MOCLDY    54  51  90 W13G21    29.72F
STEVENS POINT  NOT AVBL
WAUPACA        NOT AVBL
SHAWANO        CLOUDY    57  55  91 NW7       29.66F
CLINTONVILLE   CLOUDY    55  54  94 NW5       29.66F
$$

WIZ038-039-048-051-210900-
FOX VALLEY

CITY           SKY/WX    TMP DP  RH WIND       PRES   REMARKS
NWS GREEN BAY  MOCLDY    57  55  93 W9        29.66S
APPLETON       NOT AVBL
OSHKOSH        CLOUDY    57  54  89 W13G21    29.67F
FOND DU LAC    MOCLDY    58  53  84 NW12G21   29.69F
$$

WIZ022-050-052-210900-
EAST CENTRAL WISCONSIN

CITY           SKY/WX    TMP DP  RH WIND       PRES   REMARKS
STURGEON BAY   MOCLDY    55  52  88 NW9       29.64S
MANITOWOC      NOT AVBL
SHEBOYGAN      MOCLDY    58  54  86 W13       29.67R
$$

LMZ563-521-522-541>543-210900-
LAKESHORE

STATION/POSITION TIME  TEMP    WIND        PRES    VSBY  WAVE
                       AIR SEA DIR/SP/G                  HT/PER
                 (UTC) (F)     (DEG/KT/KT) (MB)    (MI)  (FT/S)
SHEBOYGAN LKSHOR 0700   59 54  280/ 12/ 14 1004.2R
KEWAUNEE LKSHORE 0700   56     320/  3/  4 1002.6F
NORTHPORT PIER   0700   56      10/  4/ 12 1004.4R
N MID LAKE BUOY  0700   57 58   30/ 14/ 16 1003.2F         2/ 7
S GREEN BAY BUOY 0700   58     VRB 12/ 14  1004.7F
SISTER BAY LKSHO 0700           20/  5/  8   N/A
CHAMBERS ISLAND  0700   56      20/ 13/ 17 1003.7F
MENOMINEE LKSHOR 0700   56     350/  8/ 10 1004.6R
$$



USA.gov is the U.S. government's official web portal to all federal, state and local government web resources and services.